GFSFLT2_250_spd_297.txt.gz
Wind_Speed
132 142 144 141 148 150 154 166 164 159 154 147 157 146 136 132 123 117 111 102 97 99 95 92 90 87 81
118 128 132 137 143 151 153 159 168 165 160 152 146 149 138 137 132 123 117 111 103 100 100 97 91 87 84
114 120 122 128 129 139 150 156 165 169 166 158 149 146 143 135 137 130 120 117 105 104 102 99 93 88 89
107 113 117 121 124 127 136 151 160 167 170 164 153 149 148 137 137 132 127 122 112 115 106 101 96 89 89
99 106 110 113 118 122 126 136 150 161 171 169 162 153 145 141 137 136 132 124 121 114 106 104 103 98 91
92 99 107 106 112 117 121 125 135 149 164 171 164 156 149 142 141 133 131 123 116 120 109 107 102 99 92
85 94 102 101 104 108 114 118 123 137 156 169 168 161 154 146 141 141 131 128 124 123 114 115 110 104 95
79 88 97 97 97 103 108 112 117 126 139 161 170 166 158 150 142 146 132 134 130 120 113 106 112 114 102
74 83 90 94 92 96 101 106 112 119 127 153 165 168 164 154 147 145 148 138 130 130 126 103 109 116 117
69 78 84 90 89 91 97 101 107 115 123 138 163 166 165 158 155 148 149 146 141 143 142 135 127 121 121
63 71 78 83 86 88 92 98 104 111 118 127 156 164 168 163 157 151 152 150 141 131 137 134 132 128 128
57 66 72 78 82 85 89 94 99 109 113 120 139 162 167 168 164 156 152 150 146 137 132 134 132 130 128
53 61 67 72 76 81 86 90 96 105 107 115 130 147 165 169 164 160 156 153 153 153 132 132 134 138 128
51 56 62 67 72 76 82 87 92 98 104 111 124 138 157 164 165 163 160 155 154 155 149 139 133 128 126
48 52 58 63 69 73 78 82 88 95 101 108 118 130 144 159 164 163 160 155 156 148 144 144 130 126 127
44 49 54 60 65 70 74 79 85 89 95 102 112 122 133 150 159 164 160 159 154 143 145 147 138 129 124
41 45 51 56 62 68 72 75 81 85 92 100 108 116 126 139 153 159 162 160 155 147 143 143 135 141 130

GFSFLT2_250_spd_300.txt.gz
Wind_Speed
126 132 130 134 137 134 135 139 147 149 155 156 158 160 158 153 150 139 135 131 124 119 112 100 93 93 93
116 121 124 124 126 125 125 128 138 147 154 155 159 160 162 159 152 151 139 135 128 126 121 108 101 97 96
111 114 117 119 119 115 120 122 123 141 152 158 158 160 161 163 154 152 147 137 131 126 124 115 110 100 98
99 103 109 113 114 110 112 117 115 127 137 155 154 159 158 159 159 150 154 145 135 129 126 118 111 107 101
91 92 102 105 106 104 104 112 111 116 126 140 152 157 159 157 159 156 150 151 142 133 129 118 112 111 106
84 85 94 96 99 97 95 102 108 109 115 129 144 148 158 156 158 161 153 151 149 134 130 124 120 115 111
75 80 86 92 92 90 90 95 100 107 108 118 130 137 151 152 154 159 158 151 146 137 132 124 120 121 114
70 74 78 84 85 86 86 89 94 100 104 111 118 139 147 155 156 156 156 158 150 139 134 128 125 120 114
65 67 71 74 79 81 83 84 90 94 99 107 115 129 146 152 157 157 154 155 152 146 141 132 130 129 120
60 61 65 68 73 74 77 80 85 90 95 102 114 119 135 148 153 156 157 157 155 151 143 139 132 134 121
53 55 59 62 66 69 73 76 81 88 92 97 109 112 120 131 145 152 159 160 157 151 144 143 137 136 133
46 50 54 57 60 64 68 72 77 87 88 92 102 107 114 122 132 144 151 156 156 153 148 143 141 133 130
41 46 50 51 56 60 65 70 75 81 81 88 97 104 110 119 126 134 147 151 156 154 152 148 145 135 131
39 42 45 48 51 56 62 66 72 74 77 84 94 99 106 114 121 129 141 148 153 155 151 150 145 139 134
37 39 42 44 48 52 58 63 69 71 74 81 89 95 105 113 119 124 134 146 149 152 152 153 148 145 134
35 38 40 41 45 50 54 60 64 68 72 78 84 90 100 109 116 124 131 142 149 152 153 155 152 147 137
33 35 37 40 42 47 51 56 60 65 69 75 82 87 97 108 116 121 127 137 148 150 156 156 154 150 145

GFSFLT2_250_spd_306.txt.gz
Wind_Speed
120 121 123 125 126 128 130 130 130 130 131 131 131 130 129 128 127 125 124 124 125 128 133 132 127 120 116
119 120 121 120 123 124 127 130 133 134 134 134 135 136 136 134 133 133 133 132 131 130 129 133 136 129 126
115 117 118 120 121 124 126 127 131 135 137 138 139 140 139 138 138 139 139 138 136 136 136 132 133 137 131
109 110 113 118 120 122 123 127 129 134 138 140 140 139 141 142 142 143 144 144 143 142 141 139 136 136 140
104 106 110 114 119 120 119 122 123 127 131 135 139 140 141 142 143 144 146 147 149 147 146 144 142 139 136
110 111 115 118 122 124 126 128 127 134 138 137 142 140 142 144 145 146 146 146 148 149 148 146 145 144 141
118 120 121 124 127 131 134 133 134 137 144 141 144 139 144 140 141 140 142 144 146 148 148 147 145 146 145
111 115 115 118 120 123 125 125 123 125 129 124 127 127 128 122 121 123 126 130 135 140 143 146 145 145 146
98 99 102 105 107 105 109 110 107 109 114 115 111 116 114 111 112 114 115 116 119 125 132 138 143 145 144
92 94 96 98 99 100 102 100 100 97 109 103 96 102 98 101 100 101 104 108 113 119 123 128 134 141 142
90 91 91 92 92 90 91 89 87 89 101 97 86 87 87 90 93 94 95 101 107 113 119 124 125 131 140
86 87 86 84 81 81 81 82 78 83 92 88 77 75 79 77 85 88 90 95 101 106 112 118 121 125 131
79 77 76 75 75 74 73 72 72 75 80 77 67 69 69 72 79 83 83 90 94 99 106 112 118 121 126
69 70 68 67 68 67 65 64 66 70 71 67 64 62 64 68 72 78 77 84 88 93 100 105 112 117 122
62 62 61 61 62 60 57 60 62 64 65 62 60 59 61 64 68 72 72 80 86 91 94 100 107 114 117
56 56 56 56 57 54 53 54 57 57 58 57 54 55 58 61 64 66 68 76 81 86 89 97 105 111 113
51 50 51 51 51 49 47 48 50 50 51 52 51 53 54 58 59 63 66 72 78 82 88 95 101 107 110

GFSFLT2_250_spd_312.txt.gz
Wind_Speed
112 110 107 106 105 104 104 104 103 102 101 101 101 102 102 103 104 105 107 111 115 117 117 117 117 120 119
119 116 115 114 112 110 108 109 108 106 107 104 105 105 106 109 109 109 110 110 111 112 111 110 109 110 116
124 124 123 121 120 119 118 117 117 117 116 115 116 113 111 111 112 116 118 119 119 119 118 117 116 115 113
123 131 130 129 127 126 125 124 123 123 124 124 121 119 119 119 120 119 119 122 120 121 122 122 122 122 121
120 127 133 134 131 130 129 130 130 131 129 130 128 125 124 125 125 124 124 122 124 123 125 126 125 125 126
119 121 127 134 138 137 136 134 134 134 134 135 136 135 135 132 132 133 131 131 130 129 130 130 130 131 131
118 120 121 126 131 135 136 136 139 141 138 136 137 135 136 136 137 135 134 134 134 135 135 134 134 134 133
115 117 120 122 124 127 131 131 131 134 136 134 136 135 137 138 138 139 139 138 138 138 137 138 137 135 134
112 113 115 116 119 121 124 126 127 130 133 130 132 133 134 134 137 138 139 139 138 137 136 135 136 134 133
120 121 122 122 121 119 117 118 121 122 128 125 128 130 130 131 134 135 135 136 136 136 135 136 135 135 133
109 111 118 120 122 123 122 123 124 125 130 132 132 133 132 133 136 137 137 137 136 136 136 136 137 137 135
101 103 104 105 107 108 111 111 112 113 118 123 122 122 122 121 123 127 126 124 124 124 125 124 125 127 129
96 97 97 99 99 100 101 102 103 104 109 113 111 110 109 109 111 114 116 117 116 114 115 116 114 115 115
87 89 89 90 91 92 92 93 92 95 97 100 100 98 97 98 99 101 103 104 108 108 108 107 107 105 105
86 86 87 87 87 87 88 87 87 91 93 93 94 93 93 95 96 98 98 100 104 105 103 99 97 96 96
80 82 83 83 84 83 84 83 83 86 88 88 87 88 87 89 91 93 92 94 97 97 96 91 89 91 88
71 72 73 74 74 74 74 74 77 78 78 80 80 80 79 80 87 84 86 88 87 87 87 83 79 82 80

GFSFLT2_250_spd_315.txt.gz
Wind_Speed
107 106 103 101 102 100 100 102 104 106 109 111 111 113 114 114 114 114 117 118 116 116 115 115 115 116 116
116 115 114 111 109 108 107 105 105 107 106 108 111 114 114 114 114 113 111 109 110 110 111 111 111 111 114
123 120 121 122 120 118 117 115 112 111 110 111 113 112 111 111 112 112 110 108 109 109 108 107 106 107 108
125 127 128 129 129 126 122 123 121 120 120 117 118 117 117 115 114 113 112 111 110 108 108 107 106 106 106
130 132 135 135 134 133 131 131 129 128 127 127 125 122 123 121 120 120 120 118 117 114 114 113 111 109 107
127 127 130 131 132 132 132 131 132 132 132 132 131 130 129 129 128 127 126 126 123 122 122 122 119 119 116
124 125 126 126 129 129 130 130 130 131 132 132 136 135 136 135 134 135 134 132 131 130 129 128 128 126 125
121 122 122 122 124 126 128 128 127 126 131 131 134 132 134 137 140 141 140 139 138 137 137 137 137 136 134
116 117 118 120 121 122 123 124 124 124 127 126 128 130 133 136 139 142 145 147 146 145 145 144 143 142 141
112 112 112 112 114 115 118 119 120 120 123 122 122 125 125 130 133 137 139 143 146 148 149 147 148 148 147
121 120 120 120 120 119 117 115 114 114 119 118 116 120 122 124 129 131 133 135 137 139 143 144 144 144 144
108 110 111 111 113 114 120 124 122 121 125 128 127 127 126 123 123 128 128 130 131 133 135 137 137 138 137
100 101 103 103 104 105 107 108 110 112 116 120 120 122 122 123 128 131 133 132 131 132 132 131 131 132 132
91 93 94 95 95 97 98 100 100 103 106 109 111 111 111 110 111 115 121 125 129 129 129 128 129 130 128
85 86 88 88 89 90 90 91 92 94 97 99 100 100 100 102 101 104 107 110 113 115 115 114 116 117 116
83 84 85 86 87 87 86 86 87 89 90 92 91 90 90 91 93 96 96 99 102 104 106 105 104 106 106
78 79 80 81 82 83 82 82 83 84 85 86 87 86 86 86 90 89 91 94 97 100 101 100 99 102 101

GFSFLT2_250_spd_318.txt.gz
Wind_Speed
106 105 105 103 99 97 97 96 95 93 93 95 101 106 107 107 107 107 108 110 110 109 109 108 107 107 108
112 111 112 112 110 107 106 104 101 100 100 100 100 99 101 107 109 111 114 114 114 114 113 111 112 113 112
117 116 115 117 116 116 115 113 112 110 109 106 107 107 105 104 104 106 109 112 114 115 116 116 117 116 116
121 123 121 121 120 121 120 120 119 116 116 114 113 113 112 113 111 111 113 114 114 114 114 114 115 114 114
123 123 125 125 124 124 123 124 122 123 122 122 122 120 120 120 120 121 120 118 117 117 116 116 116 114 113
126 127 129 131 131 129 128 128 128 130 129 128 129 129 130 129 128 128 128 128 125 123 125 122 120 119 118
121 124 127 131 133 134 134 133 133 134 134 131 133 131 132 130 134 135 135 135 135 133 131 130 128 126 124
118 120 123 126 129 132 133 133 134 135 134 131 137 134 135 135 137 140 141 141 141 140 138 138 137 134 132
116 117 120 123 125 127 129 129 129 131 130 130 134 134 133 133 134 136 136 135 137 138 139 140 141 141 139
115 117 119 121 123 124 125 124 125 126 129 128 127 128 128 129 132 134 134 134 134 136 137 136 137 138 137
112 114 115 117 119 121 122 121 122 123 128 128 126 126 124 125 128 130 131 131 131 130 132 134 136 136 136
117 119 120 122 122 122 121 120 118 117 120 121 119 119 118 117 115 122 124 127 128 128 128 130 131 133 132
104 105 106 106 107 109 111 114 116 117 120 124 125 125 123 121 121 121 123 123 123 124 126 126 126 126 126
94 96 97 98 99 101 101 103 102 105 107 109 111 113 113 114 114 116 119 121 128 129 125 121 120 120 120
87 89 90 90 91 92 93 94 94 96 98 100 102 104 104 106 106 108 112 114 116 117 119 123 125 126 127
83 84 85 86 86 87 87 87 88 90 90 93 94 94 95 97 99 101 103 105 107 108 108 108 111 116 117
82 83 84 85 84 86 85 85 87 88 89 90 91 91 89 89 92 91 93 96 99 101 102 102 102 105 106

GFSFLT2_250_spd_321.txt.gz
Wind_Speed
106 104 103 101 98 97 97 95 93 91 90 89 89 89 88 88 92 97 101 106 108 108 107 108 107 106 104
112 110 111 110 109 107 106 103 103 102 101 100 99 97 93 92 93 92 92 93 97 104 108 110 110 111 111
118 118 118 116 114 113 113 113 112 111 109 109 107 106 105 104 102 100 100 98 96 96 99 102 106 110 111
125 125 124 122 120 119 119 119 118 116 114 114 115 115 114 113 110 109 108 105 103 104 101 101 101 101 103
130 131 131 130 129 128 127 126 125 124 122 123 121 119 120 120 119 119 117 116 114 111 110 108 108 107 107
123 124 128 129 130 130 131 133 133 132 132 129 127 127 129 127 125 124 124 124 122 121 118 116 116 113 113
118 119 121 124 125 125 128 131 132 134 134 133 135 133 133 133 132 131 130 129 128 127 125 124 123 121 119
114 116 118 120 122 124 124 125 127 131 133 131 134 134 136 134 134 135 135 134 133 131 131 129 128 127 126
110 112 114 117 119 121 123 123 123 124 126 126 132 134 136 137 138 139 140 139 139 137 135 134 134 133 133
111 111 112 114 115 117 118 118 119 120 125 125 126 128 129 133 136 139 138 139 139 139 139 138 138 139 139
113 112 112 111 112 113 114 115 117 117 122 123 122 125 125 127 131 134 135 136 136 135 135 136 138 140 140
114 114 112 111 110 110 111 112 114 116 120 121 120 121 122 122 123 127 129 130 132 132 133 134 134 135 135
110 112 113 113 112 112 112 113 113 114 115 117 118 119 119 119 121 124 126 130 131 131 131 131 130 129 129
102 106 109 110 112 113 114 115 115 118 118 119 120 121 121 122 123 124 127 125 129 128 127 126 126 127 127
91 94 96 98 100 101 102 104 104 106 109 110 110 111 111 113 113 114 115 117 120 126 127 128 128 128 126
84 85 87 88 89 91 92 93 94 95 97 100 100 99 99 102 104 105 106 109 111 112 115 116 117 120 122
81 83 84 85 86 87 88 88 89 90 92 94 93 91 89 92 95 95 97 100 101 104 105 106 107 112 112

GFSFLT2_250_spd_327.txt.gz
Wind_Speed
103 102 101 98 97 96 94 90 88 88 88 89 89 89 87 85 87 91 93 94 94 94 92 93 93 93 92
110 109 107 107 107 106 103 101 99 98 97 96 97 96 93 91 91 89 90 90 92 96 98 100 100 100 99
116 115 115 115 114 111 111 111 109 107 107 106 104 103 102 100 99 97 96 95 93 92 91 92 93 95 98
119 119 120 119 118 119 120 118 117 116 115 113 113 112 110 109 108 107 106 105 104 103 101 99 97 95 93
124 124 123 123 122 123 124 124 125 125 124 123 123 121 121 119 118 116 116 115 114 113 112 111 109 105 104
123 124 126 126 127 127 129 130 130 129 130 131 129 129 129 129 129 127 124 122 123 123 121 119 117 116 115
120 123 123 123 123 123 125 126 129 130 126 130 133 134 135 135 135 134 134 134 132 130 129 127 125 122 122
119 121 122 124 124 125 124 124 124 125 126 126 130 129 130 130 131 133 135 137 137 140 139 137 136 133 132
117 118 118 119 119 119 118 119 120 121 124 122 126 126 127 128 130 130 131 132 134 137 138 139 142 143 141
114 114 116 117 118 118 118 119 119 119 124 122 122 125 124 125 126 126 127 129 131 133 134 136 138 139 139
118 119 119 121 122 122 121 120 119 118 122 120 119 121 120 119 124 126 127 127 128 129 131 132 133 134 134
126 127 126 128 128 128 128 127 127 127 130 129 125 126 124 121 121 126 127 126 126 127 126 126 127 129 130
119 120 124 125 127 129 131 133 133 134 135 135 133 131 130 129 128 129 130 132 132 128 128 126 125 124 123
106 108 108 110 111 112 113 115 116 120 122 124 125 125 127 128 129 131 134 134 137 136 135 133 130 128 126
95 96 97 98 101 102 102 105 105 107 110 110 110 110 110 111 113 115 117 118 122 126 127 130 132 133 132
84 87 89 90 91 92 94 96 96 98 100 103 102 101 102 104 107 109 110 112 115 115 116 116 121 128 130
81 82 83 83 84 86 88 89 90 93 96 99 101 100 98 100 105 105 107 110 107 106 106 107 109 118 118

GFSFLT2_250_spd_330.txt.gz
Wind_Speed
102 102 102 102 102 101 101 100 98 96 94 92 92 91 89 86 83 82 80 82 83 87 89 89 89 89 87
110 110 109 109 109 107 106 105 106 105 104 102 100 98 97 95 93 88 86 85 85 84 86 88 90 94 94
115 115 116 116 115 114 115 113 114 114 112 110 110 108 105 103 101 97 95 93 92 91 91 91 90 89 90
117 118 119 119 120 120 121 122 120 120 119 118 115 114 113 112 110 107 105 104 102 101 100 99 97 95 93
118 119 120 120 120 120 120 121 121 121 121 121 121 121 121 119 117 116 115 113 112 111 109 108 106 105 103
119 119 119 121 121 122 123 124 124 120 121 122 123 124 125 124 124 123 123 122 121 121 119 116 116 114 112
116 118 120 121 120 122 125 126 126 126 123 125 124 125 125 125 125 124 124 125 127 127 126 126 124 122 123
114 117 117 120 120 121 122 122 123 124 124 124 126 124 124 124 124 124 123 123 125 128 130 133 132 132 131
114 115 116 117 118 118 119 120 121 123 125 123 126 125 125 126 126 125 123 122 122 124 127 129 131 134 137
113 114 116 118 119 119 119 118 118 118 123 120 120 124 123 125 126 125 123 123 123 124 124 124 124 125 128
109 110 112 114 116 117 117 117 118 119 122 120 120 122 120 119 123 124 123 123 123 124 124 124 124 124 124
116 118 118 118 118 119 120 119 118 118 122 121 119 121 120 118 116 122 123 122 123 123 123 122 123 124 124
123 123 125 126 125 127 127 126 126 126 128 128 127 126 126 125 124 125 125 126 126 124 123 122 122 122 121
111 111 112 112 113 114 118 120 123 126 127 129 131 131 132 132 131 133 135 132 134 132 130 129 129 128 127
95 97 98 99 101 102 103 104 105 109 113 115 114 114 116 119 120 123 127 130 135 136 133 134 136 136 134
85 87 88 89 90 91 92 93 94 97 99 103 102 101 102 105 107 109 111 115 118 118 119 118 120 126 127
83 84 86 87 87 87 87 87 87 89 91 93 95 94 91 91 95 97 100 105 104 105 107 106 107 114 111